Location: Kielce
(50.8833°N, 20.6167°E)
Time: 07:33:39
(UTC+02:00)

Explorer 7 - All Passes

Search period start: 14 April 2021 00:00
Search period end: 24 April 2021 00:00
Orbit: 484 x 677 km, 50.3° (Epoch: 12 April)

Date Brightness Start Highest point End Pass type
(mag) Time Alt. Az. Time Alt. Az. Time Alt. Az.
14 Apr - 01:27:53 10° W 01:32:22 84° S 01:37:08 10° E visible
14 Apr - 03:08:20 10° W 03:12:56 68° SSW 03:17:44 10° ESE visible
14 Apr - 04:49:03 10° W 04:53:07 29° SW 04:57:16 10° SSE visible
14 Apr - 22:13:17 10° S 22:16:27 21° SE 22:19:46 10° E night (unlit)
14 Apr - 23:52:06 10° WSW 23:56:22 59° SSE 00:00:55 10° E night (unlit)
15 Apr - 01:32:21 10° W 01:36:51 85° S 01:41:37 10° E visible
15 Apr - 03:12:49 10° W 03:17:21 57° SSW 03:22:05 10° ESE visible
15 Apr - 04:53:49 10° W 04:57:21 21° SW 05:00:58 10° S visible
15 Apr - 22:17:03 10° SSW 22:20:41 28° SE 22:24:31 10° E night (unlit)
15 Apr - 23:56:28 10° WSW 00:00:46 71° SSE 00:05:23 10° E night (unlit)
16 Apr - 01:36:50 10° W 01:41:20 82° S 01:46:06 10° E visible
16 Apr - 03:17:19 10° W 03:21:44 45° SSW 03:26:20 10° SE visible
16 Apr - 04:58:54 10° WSW 05:01:33 15° SW 05:04:14 10° S visible
16 Apr - 20:45:17 10° SE 20:45:28 10° SE 20:45:37 10° SE visible
16 Apr - 22:21:05 10° SW 22:24:58 38° SSE 22:29:07 10° E visible
17 Apr - 00:00:54 10° WSW 00:05:14 79° S 00:09:52 10° E night (unlit)
17 Apr - 01:41:18 10° W 01:45:47 75° SSW 01:50:32 10° ESE visible
17 Apr - 03:21:52 10° W 03:26:04 35° SSW 03:30:26 10° SSE visible
17 Apr - 20:47:09 10° S 20:49:35 15° SE 20:52:04 10° E visible
17 Apr - 22:25:16 10° SW 22:29:18 49° SSE 22:33:38 10° E visible
18 Apr - 00:05:21 10° W 00:09:42 84° S 00:14:21 10° E night (unlit)
18 Apr - 01:45:46 10° W 01:50:14 65° SSW 01:54:56 10° ESE visible
18 Apr - 03:26:31 10° W 03:30:21 26° SW 03:34:19 10° SSE visible
18 Apr - 20:50:37 10° SSW 20:53:46 22° SE 20:57:04 10° E visible
18 Apr - 22:29:33 10° WSW 22:33:42 62° SSE 22:38:08 10° E visible
19 Apr - 00:09:49 10° W 00:14:10 84° S 00:18:49 10° E visible
19 Apr - 01:50:15 10° W 01:54:38 53° SSW 01:59:15 10° SE night (unlit)
19 Apr - 03:31:20 10° W 03:34:35 19° SW 03:37:55 10° S visible
19 Apr - 20:54:26 10° SSW 20:58:00 30° SSE 21:01:46 10° E visible
19 Apr - 22:33:56 10° WSW 22:38:07 73° SSE 22:42:36 10° E visible
20 Apr - 00:14:17 10° W 00:18:38 80° S 00:23:17 10° ESE visible
20 Apr - 01:54:45 10° W 01:58:59 41° SSW 02:03:27 10° SE night (unlit)
20 Apr - 03:36:37 10° WSW 03:38:46 13° SW 03:40:57 10° SSW night (unlit)
20 Apr - 19:21:50 10° SSE 19:22:45 11° SE 19:23:40 10° ESE daylight
20 Apr - 20:58:30 10° SW 21:02:18 40° SSE 21:06:21 10° E visible
20 Apr - 22:38:22 10° W 22:42:34 81° S 22:47:05 10° E visible
21 Apr - 00:18:45 10° W 00:23:06 72° SSW 00:27:43 10° ESE visible
21 Apr - 01:59:19 10° W 02:03:19 31° SSW 02:07:29 10° SSE night (unlit)
21 Apr - 19:24:25 10° S 19:26:53 16° SE 19:29:26 10° E daylight
21 Apr - 21:02:42 10° SW 21:06:39 51° SSE 21:10:52 10° E visible
21 Apr - 22:42:49 10° W 22:47:02 85° S 22:51:33 10° E visible
22 Apr - 00:23:13 10° W 00:27:31 61° SSW 00:32:05 10° ESE visible
22 Apr - 02:04:00 10° W 02:07:36 23° SW 02:11:19 10° SSE night (unlit)
22 Apr - 19:27:57 10° SSW 19:31:05 23° SE 19:34:22 10° E daylight
22 Apr - 21:07:02 10° WSW 21:11:03 64° SSE 21:15:20 10° E visible
22 Apr - 22:47:17 10° W 22:51:30 84° S 22:56:01 10° E visible
23 Apr - 00:27:42 10° W 00:31:55 49° SSW 00:36:23 10° SE visible
23 Apr - 02:08:56 10° W 02:11:48 17° SW 02:14:47 10° S night (unlit)
23 Apr - 19:31:50 10° SSW 19:35:20 31° SSE 19:39:02 10° E daylight
23 Apr - 21:11:25 10° WSW 21:15:28 75° SSE 21:19:48 10° E visible
23 Apr - 22:51:45 10° W 22:55:58 78° S 23:00:28 10° ESE visible
